Gadsden, AL

9:44 AM CST on December 15, 2019 (GMT -0600)
Gadsden Municipal

Weather History for KGAD - June, 2019

Change the Weather History Date:

Sunday, June 2, 2019

  Actual Average Record
Temperature  
Mean Temperature 74 °F -  
Max Temperature 91 °F 79 °F 99 °F (1951)
Min Temperature 57 °F 59 °F 46 °F (1931)
Cooling Degree Days 9    
Growing Degree Days 24 (Base 50)    
Moisture  
Dew Point 65 °F    
Average Humidity 74    
Maximum Humidity 100    
Minimum Humidity 42    
Precipitation  
Precipitation 0.00 in - - ()
Sea Level Pressure  
Sea Level Pressure 29.91 in    
Wind  
Wind Speed 2 mph ()    
Max Wind Speed 12 mph    
Max Gust Speed 20 mph    
Visibility 9.7 miles    
Events      
Averages and records for this station are not official NWS values.
T = Trace of Precipitation, MM = Missing Value Source: Averaged Metar Reports

Daily Weather History Graph

Daily Weather History Graph

Search for Another Location

Airport or City:

Astronomy

Jun. 02, 2019 Rise Set
Actual Time 5:34 AM CDT 7:50 PM CDT
Civil Twilight 5:05 AM CDT 8:19 PM CDT
Nautical Twilight 4:30 AM CDT 8:54 PM CDT
Astronomical Twilight 3:51 AM CDT 9:33 PM CDT
Moon 5:08 AM CDT (6/2) 7:12 PM CDT (6/2)
Length of Visible Light 15h 14m
Length of Day
14h 16m
Waning Crescent, 1% of the Moon is Illuminated
Jun 2
Waning Crescent
Jun 3
New
Jun 10
First Quarter
Jun 17
Full
Jun 25
Last Quarter

Hourly Weather History & Observations

Time (CDT) Temp. Heat Index Dew Point Humidity Pressure Visibility Wind Dir Wind Speed Gust Speed Precip Events Conditions
12:56 AM 62.1 °F - 62.1 °F 100% 29.89 in 10.0 mi Calm Calm - N/A   Clear
1:56 AM 61.0 °F - 61.0 °F 100% 29.90 in 10.0 mi Calm Calm - N/A   Clear
2:56 AM 60.1 °F - - N/A% 29.90 in 10.0 mi Calm Calm - N/A   Clear
3:56 AM 59.0 °F - 59.0 °F 100% 29.90 in 9.0 mi Calm Calm - N/A   Partly Cloudy
4:56 AM 57.9 °F - - N/A% 29.92 in 9.0 mi Calm Calm - N/A   Clear
5:56 AM 59.0 °F - 59.0 °F 100% 29.93 in 10.0 mi Calm Calm - N/A   Clear
6:56 AM 61.0 °F - 61.0 °F 100% 29.94 in 9.0 mi Calm Calm - N/A   Clear
7:56 AM 68.0 °F - 66.0 °F 93% 29.94 in 10.0 mi Calm Calm - N/A   Clear
8:56 AM 73.9 °F - 66.9 °F 79% 29.95 in 10.0 mi Variable 3.5 mph - N/A   Clear
9:56 AM 78.1 °F - 64.9 °F 64% 29.96 in 10.0 mi Calm Calm - N/A   Clear
10:56 AM 82.0 °F 84.5 °F 66.9 °F 60% 29.94 in 10.0 mi WSW 9.2 mph - N/A   Clear
11:56 AM 86.0 °F 87.6 °F 64.9 °F 49% 29.94 in 10.0 mi West 9.2 mph - N/A   Clear
12:56 PM 88.0 °F 89.6 °F 64.9 °F 46% 29.92 in 10.0 mi WSW 6.9 mph - N/A   Partly Cloudy
1:56 PM 91.0 °F 93.0 °F 64.9 °F 42% 29.91 in 10.0 mi West 11.5 mph - N/A   Clear
2:56 PM 90.0 °F 91.7 °F 64.9 °F 43% 29.89 in 10.0 mi West 11.5 mph 17.3 mph N/A   Partly Cloudy
3:56 PM 89.1 °F 90.0 °F 63.0 °F 42% 29.88 in 10.0 mi West 10.4 mph 19.6 mph N/A   Scattered Clouds
4:56 PM 89.1 °F 92.1 °F 66.9 °F 48% 29.88 in 10.0 mi WNW 8.1 mph - 0.00 in   Partly Cloudy
5:56 PM 87.1 °F 88.9 °F 64.9 °F 48% 29.88 in 10.0 mi SW 5.8 mph - N/A   Partly Cloudy
6:56 PM 82.0 °F 84.5 °F 66.9 °F 60% 29.88 in 10.0 mi SSE 5.8 mph - N/A   Mostly Cloudy
7:56 PM 75.9 °F - 69.1 °F 79% 29.90 in 10.0 mi South 3.5 mph - 0.00 in   Scattered Clouds
8:56 PM 71.1 °F - 71.1 °F 100% 29.91 in 10.0 mi Calm Calm - N/A   Clear
9:56 PM 70.0 °F - 70.0 °F 100% 29.92 in 10.0 mi Calm Calm - N/A   Clear
10:56 PM 68.0 °F - - N/A% 29.93 in 10.0 mi Calm Calm - N/A   Clear
11:56 PM 66.9 °F - 66.0 °F 97% 29.93 in 5.0 mi Calm Calm - N/A   Clear